NOAA 16 DEB, 41230

Orbit data source: Space-Track

NOAA 16 DEB, 41230 is space debris in SSO originally from a launch on Thu, 21 Sep 2000 UTC launched from the Air Force Western Test Range (AFWTR). Debris objects in space refer to the collection of defunct objects orbiting the Earth. Examples of debris include non-operational satellites, rocket bodies, and fragments generated from explosions, collisions, or faulty payload assembly.

Loading next visibility...
Identifier
41230, 2000-055EK
Orbit
SSO
Country
Flag of USUS
Related business
Manufacturer
Unknown
Mission
Spacecraft
Bus & Motor
Unknown
Mass
Unknown
Launch date (UTC)
2000-09-21 (26 years ago)
Launch vehicle
Unknown
Launch site
Air Force Western Test Range (AFWTR)
Object type
Payload
Rocket body
Debris
Shape & HBR
Unknown shape, 0.1 m
Radar Cross Section
Medium (>0.1 m² and <1 m²)

Expand to show TLE details & history
Last TLE update: 5 days ago

TLE from 5 days ago
0 NOAA 16 DEB
1 41230U 00055EK  26250.10415823  .00003072  00000-0  75506-3 0  9997
2 41230  98.9911 127.4660 0025206 219.5177 140.4179 14.52925667559835
Epoch: 2026-09-07T02:29Z
TLE epoch observation values (Epoch: 2026-09-07T02:29:59.271Z)
Latitude
-0.00003°
Longitude
103.77933°
Altitude
732.862 km
Speed
7.481 km/s
True Right ascension
08h 29m 51s
True Declination
0° 00' 00"
Sunlit
Object was in daylight at epoch
Visualization orbit readout
Latitude
Unknown
Longitude
Unknown
Altitude
Unknown
Speed
Unknown
Apparent Right ascension
Unknown
Apparent Declination
Unknown
Sunlit
N/A
Visualization observer readout
Local Sidereal Time
13:17:20
Azimuth
Unknown
Elevation
Unknown
Doppler factor
Unknown
Orbital elements
Apogee altitude
731.112 km
Perigee altitude
695.363 km
Semi-major axis
7,091.375 km
Eccentricity
0.00252
Inclination
98.9911°
RAAN
127.466°
Arg. of periapsis
219.5177°
True anomaly
140.6015°
Mean anomaly
140.4179°
Eccentric anomaly
140.50974°
Mean motion
3.63452 °/min
Orbital period
99.05 mins
BSTAR
0.00075506
Loading maneuver chart data...
Computing Atmospheric mass density...
Loading historical data...
Loading historical data...
Loading historical data...
Loading historical data...
Loading historical data...
Loading historical data...
Loading historical data...

Documentation

Showing up to 5 results
|